THOR 6

Last updated on Aug. 8, 2020, 5:32 a.m. UTC

1 36033U 09058B   20220.78227556 -.00000019  00000-0  00000+0 0  9995
2 36033   0.0121 155.0135 0002202   3.3836  79.1075  1.00272354 39511
UTC
Height (km)
Latitude
Longitude
Inclination
Orbital Period
UTC large
Height (km)
Speed (km/s)
/
Latitude / Longitude
Inclination (degrees)
Orbital Period (minutes)
Azimuth
Elevation
Range (km)
Doppler Factor
iOS Compass Heading
iOS Angle

Next 30 passes for location: Hong Kong

Rise time Rise Azimuth (degrees) Set time Set Azimuth (degrees) Duration Max altitude (degrees)

No matching passes for this satellites